Simultaneous Nadir Overpasses (SNOs) Predictions

Prediction of SNOs between GOES-16 and NOAA-19 Satellite Orbit:

Table of predicted SNOs for the next 14.0 days since TLE Epoch: 5/2/2020
Index Date Time (GOES-16) GOES-16 Lat,Lon NOAA-19 Lat,Lon Distance(km) Time Diff (sec)
1 05/02/2020 10:31:57 0.02, -75.20 -0.83, -71.67 404.17 80
2 05/03/2020 23:07:20 -0.02, -75.18 -1.03, -79.49 491.68 80
3 05/04/2020 22:55:39 -0.02, -75.19 -0.38, -76.64 165.78 80
4 05/05/2020 22:41:20 -0.02, -75.19 0.32, -73.79 160.31 80
5 05/06/2020 22:32:19 -0.02, -75.20 0.97, -70.94 486.43 80
6 05/08/2020 11:04:58 0.02, -75.24 0.85, -78.75 401.22 80
7 05/09/2020 10:53:17 0.01, -75.24 0.18, -75.90 74.81 80
8 05/10/2020 10:38:57 0.01, -75.25 -0.49, -73.04 251.75 80
9 05/12/2020 23:02:43 -0.01, -75.26 -0.66, -78.03 317.04 80
10 05/13/2020 22:51:02 -0.00, -75.27 -0.01, -75.18 10.36 80
11 05/14/2020 22:39:23 -0.00, -75.29 0.70, -72.34 337.42 80




NCC Satellite Simultaneous Nadir Overpasses (SNOs) Prediction Service
